Whitefield, NH

5:29 AM EDT on June 27, 2017 (GMT -0400)
Mount Washington Regional

Weather History for KHIE - January, 2013

Change the Weather History Date:

Wednesday, January 30, 2013

  Actual Average Record
Temperature  
Mean Temperature 42 °F -  
Max Temperature 57 °F 24 °F 57 °F (2013)
Min Temperature 28 °F 1 °F -22 °F (2007)
Degree Days  
Heating Degree Days 22    
Moisture  
Dew Point 36 °F    
Average Humidity 91    
Maximum Humidity 100    
Minimum Humidity 69    
Precipitation  
Precipitation 0.21 in - - ()
Sea Level Pressure  
Sea Level Pressure 29.66 in    
Wind  
Wind Speed 1 mph (SW)    
Max Wind Speed 7 mph    
Max Gust Speed -    
Visibility 6 miles    
Events Fog , Rain    
Averages and records for this station are not official NWS values.
T = Trace of Precipitation, MM = Missing Value Source: NWS Daily Summary

Daily Weather History Graph

Daily Weather History Graph

Search for Another Location

Airport or City:

Trip Planner

Search our weather history database for the weather conditions in past years. The results will help you decide how hot, cold, wet, or windy it might be!

Date:

Astronomy

Jan. 30, 2013 Rise Set
Actual Time 7:06 AM EST 4:53 PM EST
Civil Twilight 6:35 AM EST 5:24 PM EST
Nautical Twilight 6:00 AM EST 5:59 PM EST
Astronomical Twilight 5:26 AM EST 6:33 PM EST
Moon 9:00 PM EST (1/30) 8:22 AM EST (1/30)
Length of Visible Light 10h 48m
Length of Day
9h 46m
Waning Gibbous, 88% of the Moon is Illuminated
Jan 30
Waning Gibbous
Feb 3
Last Quarter
Feb 10
New
Feb 17
First Quarter
Feb 25
Full

Hourly Weather History & Observations

Time (EST) Temp. Windchill Dew Point Humidity Pressure Visibility Wind Dir Wind Speed Gust Speed Precip Events Conditions
12:38 AM 28.4 °F - 24.8 °F 86% 30.00 in 10.0 mi Calm Calm - 0.00 in   Overcast
12:52 AM 28.0 °F - 25.0 °F 88% 30.04 in 10.0 mi Calm Calm - 0.00 in   Overcast
1:52 AM 28.0 °F - 26.1 °F 92% 30.01 in 10.0 mi Calm Calm - 0.00 in   Overcast
2:19 AM 28.4 °F 24.6 °F 26.6 °F 93% 29.96 in 4.0 mi South 3.5 mph - 0.02 in Rain Light Freezing Rain
2:35 AM 30.2 °F - 26.6 °F 86% 29.94 in 7.0 mi Calm Calm - 0.05 in Rain Light Freezing Rain
2:52 AM 30.0 °F - 27.0 °F 88% 29.98 in 8.0 mi Calm Calm - 0.05 in Rain Light Freezing Rain
3:45 AM 30.2 °F - 28.4 °F 93% 29.89 in 10.0 mi Calm Calm - 0.04 in   Overcast
3:52 AM 30.9 °F - 28.9 °F 92% 29.94 in 8.0 mi Calm Calm - 0.04 in   Overcast
4:08 AM 30.2 °F - 28.4 °F 93% 29.88 in 8.0 mi Calm Calm - 0.02 in   Overcast
4:29 AM 32.0 °F - 30.2 °F 93% 29.88 in 9.0 mi Calm Calm - 0.03 in Rain Light Freezing Rain
4:38 AM 32.0 °F - 30.2 °F 93% 29.88 in 10.0 mi Calm Calm - 0.03 in Rain Light Freezing Rain
4:52 AM 32.0 °F - 30.0 °F 92% 29.92 in 6.0 mi Calm Calm - 0.04 in Rain Light Freezing Rain
5:22 AM 33.8 °F - 30.2 °F 87% 29.87 in 8.0 mi Calm Calm - 0.00 in   Overcast
5:52 AM 33.1 °F - 30.9 °F 92% 29.89 in 8.0 mi Calm Calm - 0.00 in   Overcast
6:52 AM 33.1 °F - 30.9 °F 92% 29.86 in 6.0 mi Calm Calm - N/A   Mostly Cloudy
7:37 AM 32.0 °F - 30.2 °F 93% 29.79 in 2.5 mi Calm Calm - N/A   Scattered Clouds
7:52 AM 32.0 °F - 30.0 °F 92% 29.83 in 3.0 mi Calm Calm - N/A   Partly Cloudy
8:11 AM 33.8 °F - 30.2 °F 87% 29.78 in 3.0 mi Calm Calm - N/A   Partly Cloudy
8:52 AM 33.1 °F - 30.9 °F 92% 29.80 in 3.0 mi Calm Calm - N/A   Clear
9:52 AM 34.0 °F - 30.9 °F 89% 29.74 in 9.0 mi Calm Calm - N/A   Mostly Cloudy
10:09 AM 33.8 °F 30.8 °F 30.2 °F 87% 29.68 in 9.0 mi North 3.5 mph - N/A   Overcast
10:35 AM 35.6 °F 32.8 °F 33.8 °F 93% 29.68 in 10.0 mi East 3.5 mph - N/A   Scattered Clouds
10:52 AM 37.0 °F - 34.0 °F 89% 29.70 in 7.0 mi Calm Calm - N/A   Clear
11:52 AM 39.0 °F - 37.0 °F 93% 29.64 in 10.0 mi Calm Calm - N/A   Clear
12:52 PM 42.1 °F - 39.9 °F 92% 29.59 in 10.0 mi Calm Calm - N/A   Overcast
1:52 PM 45.0 °F - 43.0 °F 93% 29.54 in 10.0 mi Calm Calm - N/A   Scattered Clouds
2:52 PM 46.9 °F - 44.1 °F 90% 29.49 in 10.0 mi Variable 3.5 mph - N/A   Clear
3:52 PM 57.0 °F - 46.9 °F 69% 29.50 in 10.0 mi WSW 6.9 mph - 0.00 in   Overcast
4:52 PM 54.0 °F - 48.0 °F 80% 29.49 in 10.0 mi SW 4.6 mph - 0.03 in   Overcast
5:52 PM 55.9 °F - 48.9 °F 77% 29.45 in 10.0 mi WSW 6.9 mph - N/A   Overcast
6:52 PM 51.1 °F - 48.0 °F 89% 29.46 in 10.0 mi Calm Calm - N/A   Overcast
7:48 PM 46.4 °F 44.3 °F 44.6 °F 93% 29.41 in 1.8 mi SE 4.6 mph - 0.00 in Rain Light Rain
7:52 PM 45.0 °F - 43.0 °F 93% 29.44 in 1.5 mi Calm Calm - 0.00 in Rain Light Rain
8:10 PM 46.4 °F 44.3 °F 44.6 °F 93% 29.41 in 3.0 mi West 4.6 mph - 0.00 in Rain Light Rain
8:30 PM 44.6 °F 40.7 °F 42.8 °F 93% 29.43 in 1.5 mi WNW 6.9 mph - 0.01 in Rain Light Rain
8:48 PM 48.2 °F - 46.4 °F 93% 29.42 in 3.0 mi Calm Calm - 0.01 in Rain Light Rain
8:52 PM 48.0 °F - 46.9 °F 96% 29.44 in 9.0 mi West 3.5 mph - 0.01 in Rain Light Rain
9:01 PM 46.4 °F - 44.6 °F 93% 29.42 in 3.0 mi Calm Calm - 0.00 in Rain Light Rain
9:03 PM 44.6 °F - 44.6 °F 100% 29.42 in 1.5 mi Calm Calm - 0.00 in Rain Light Rain
9:08 PM 44.6 °F - 42.8 °F 93% 29.42 in 0.8 mi Calm Calm - 0.00 in Rain Light Rain
9:30 PM 44.6 °F - 42.8 °F 93% 29.43 in 0.5 mi Calm Calm - 0.01 in Fog , Rain Light Rain
9:40 PM 44.6 °F - 44.6 °F 100% 29.43 in 0.8 mi Calm Calm - 0.01 in Rain Light Rain
9:52 PM 42.1 °F 38.4 °F 41.0 °F 96% 29.42 in 0.5 mi ESE 5.8 mph - 0.03 in Fog , Rain Light Rain
10:02 PM 42.8 °F - 41.0 °F 93% 29.39 in 0.5 mi Calm Calm - 0.00 in Fog , Rain Light Rain
10:52 PM 44.1 °F 42.5 °F 42.1 °F 93% 29.38 in 0.5 mi West 3.5 mph - 0.00 in Fog , Rain Light Rain
11:52 PM 37.9 °F - 37.0 °F 97% 29.37 in 0.5 mi Calm Calm - 0.01 in Fog , Rain Light Rain